Back to catalog

FENGYUN 1C DEB

AliveSSO
NORAD 33633·DEBRIS·🇨🇳 China

Launched May 10, 1999 from Taiyuan Satellite Launch Center

Loading…

Next Passes (next 24 hours)

TLE

FreshSource: Space-Track

Epoch: Sep 13, 2026, 02:41 UTC

1 33633U 99025DDS 26256.11237447  .00002480  00000-0  11183-2 0  9993
2 33633  99.0608   1.9918 0081350  88.1467  35.1490 14.21383299946060

Track FENGYUN 1C DEB in real time with AllMySat

Download on the App Store